Regional Weather Roundup
Issued by NWS New Orleans/Baton Rouge, LA

Home | Current Version | Previous Version | Graphics & Text | Print | Product List | Glossary On
Versions: 1 2 3 4 5 6 7 8 9 10 11 12 13 14 15 16 17 18 19 20 21 22 23 24 25 26 27 28 29 30 31 32 33 34 35 36 37 38 39 40 41 42 43 44 45 46 47 48 49 50
340
ASUS44 KLIX 220601
RWRLIX
NEW ORLEANS REGIONAL WEATHER ROUNDUP
NATIONAL WEATHER SERVICE NEW ORLEANS LA
100 AM CDT WED OCT 22 2014

NOTE: "FAIR" INDICATES FEW OR NO CLOUDS BELOW 12,000 FEET WITH NO
      SIGNIFICANT WEATHER AND/OR OBSTRUCTIONS TO VISIBILITY.
      SKY/WX - SKY CONDITION AND SIGNIFICANT WEATHER.
      TMP - AIR TEMPERATURE.     DP    - DEWPOINT TEMPERATURE.
      RH  - RELATIVE HUMIDITY.   PRES  - PRESSURE.
      HI  - HEAT INDEX.          WCI   - WIND CHILL INDEX.

*  THESE STATIONS ARE NOT NWS OR FAA STATIONS AND ARE NOT UNDER
   NWS QUALITY CONTROL.

LAZ038-040-048-061>063-065>067-069-220700-
SOUTHEAST LOUISIANA

CITY           SKY/WX    TMP DP  RH WIND       PRES   REMARKS
N.O. AUDUBON     N/A     62  61  97 MISG        N/A
6HR MIN TEMP:  62; 6HR MAX TEMP:  72;

N.O. INTL ARPT CLEAR     64  56  75 CALM      30.02F
6HR MIN TEMP:  62; 6HR MAX TEMP:  74;

N.O. LAKEFRONT CLEAR     72  61  68 NE9       30.02F
6HR MIN TEMP:  69; 6HR MAX TEMP:  75;

N.O. DOWNTOWN*   N/A     70  55  60 CALM      30.02F
6HR MIN TEMP:  70; 6HR MAX TEMP:  77;

SLIDELL        CLEAR     55  52  89 N6        30.02F
6HR MIN TEMP:  55; 6HR MAX TEMP:  68;

BATON ROUGE    CLEAR     61  57  87 N3        30.03F
6HR MIN TEMP:  59; 6HR MAX TEMP:  70;

BOOTHVILLE     CLEAR     68  64  87 N3        30.01F
6HR MIN TEMP:  65; 6HR MAX TEMP:  72;

BELLE CHASSE   CLEAR     56  53  90 N3        30.01F
6HR MIN TEMP:  56; 6HR MAX TEMP:  65;

BOGALUSA*        N/A     55  52  90 CALM      30.05F FOG
6HR MIN TEMP:  55; 6HR MAX TEMP:  69;

NEW ROADS*       N/A     59  58  94 CALM      30.04F
6HR MIN TEMP:  59; 6HR MAX TEMP:  70;

GONZALES*        N/A     59  59 100 CALM      30.02F
6HR MIN TEMP:  59; 6HR MAX TEMP:  66;

HAMMOND*       NOT AVBL
HOUMA*         CLEAR     55  54  94 CALM      30.02S
6HR MIN TEMP:  55; 6HR MAX TEMP:  66;

PORT FOURCHON* CLEAR     70  64  83 NE5       30.04S

$$

MSZ070-080>082-220700-
SOUTHERN MISSISSIPPI

CITY           SKY/WX    TMP DP  RH WIND       PRES   REMARKS
MCCOMB         CLEAR     57  54  89 CALM      30.06R
6HR MIN TEMP:  57; 6HR MAX TEMP:  72;

GULFPORT       CLEAR     58  55  90 N3        30.02F
6HR MIN TEMP:  57; 6HR MAX TEMP:  69;

BILOXI         CLEAR     61  57  84 NE5       30.02F
6HR MIN TEMP:  60; 6HR MAX TEMP:  70;

PASCAGOULA     CLEAR     52  51  97 CALM      30.02F
6HR MIN TEMP:  52; 6HR MAX TEMP:  63;


$$

COASTAL OBSERVATIONS
LAKE AND NEARSHORE STATIONS

STATION/POSITION TIME  TEMP    WIND        PRES    WAVE
                       AIR SEA DIR/SP/G            HT/PER
                 (UTC) (F)     (DEG/KT/KT) (MB)    (FT/S)
PASCAGOULA       0500   63      10/  6/  8 1015.9
WAVELAND YACHT   0500   67      40/  5/  7 1015.9
GRAND ISLE       0500   72 75   60/  5/  7 1016.8
SOUTHWEST PASS   0500   72 83              1016.2
NEW CANAL        0500   73 72   50/  8/  9 1016.9
SHELL BEACH      0500   72 70  340/  6/  7 1016.2

OFFSHORE STATIONS

STATION/POSITION TIME  TEMP    WIND        PRES    WAVE
                       AIR SEA DIR/SP/G            HT/PER
                 (UTC) (F)     (DEG/KT/KT) (MB)    (FT/S)
64 S DAUPHIN ISL 0546   76 79   40/ 12/ 16 1016.2    1/ 4

$$




USA.gov is the U.S. government's official web portal to all federal, state and local government web resources and services.